Hourly Data Report for March 12, 2017

MIRAMICHI RCS
NEW BRUNSWICK

47°00'34.000" N
65°27'54.000" W
33.00 m
8100989
71744
ACQ

Download Data

Hourly Data (March 2017)
Hourly Data Report for March 12, 2017
TIME
LST
Temp Definition
°C
Dew Point Definition
°C
Rel Hum Definition
%
Precip. Amount Definition
mm

Wind Dir Definition
10's deg

Wind Spd Definition
km/h
Visibility Definition
km
Stn Press Definition
kPa
Hmdx Definition


Wind Chill Definition


Weather Definition


00:00 -20.4 -27.3 54 0.0 25 19   100.05   -31 LegendNANA
01:00 -20.1 -26.8 55 0.0 25 19   100.04   -30 LegendNANA
02:00 -20.0 -26.4 56 0.0 25 20   100.02   -30 LegendNANA
03:00 -19.5 -26.3 55 0.0 25 21   99.96   -30 LegendNANA
04:00 -19.2 -25.6 57 0.0 25 19   99.94   -29 LegendNANA
05:00 -18.6 -25.1 57 0.0 25 20   99.96   -29 LegendNANA
06:00 -18.3 -24.9 56 0.0 25 17   99.99   -28 LegendNANA
07:00 -17.7 -24.3 56 0.0 25 17   100.02   -27 LegendNANA
08:00 -16.5 -23.4 55 0.0 25 17   100.05   -25 LegendNANA
09:00 -14.7 -22.8 50 0.0 26 17   100.10   -23 LegendNANA
10:00 -12.1 -20.4 50 0.0 29 23   100.12   -21 LegendNANA
11:00 -10.0 -19.1 47 0.0 27 24   100.17   -19 LegendNANA
12:00 -8.9 -18.0 48 0.0 29 22   100.21   -17 LegendNANA
13:00 -6.9 -16.5 47 0.0 27 23   100.25   -14 LegendNANA
14:00 -5.5 -16.0 44 0.0 28 19   100.27   -12 LegendNANA
15:00 -4.5 -15.3 43 0.0 27 17   100.30   -10 LegendNANA
16:00 -3.4 -14.3 42 0.0 28 21   100.35   -10 LegendNANA
17:00 -3.2 -14.5 41 0.0 30 13   100.42   -8 LegendNANA
18:00 -4.2 -14.4 45 0.0 31 17   100.55   -10 LegendNANA
19:00 -5.9 -14.3 51 0.0 31 16   100.69   -12 LegendNANA
20:00 -6.8 -14.4 55 0.0 29 18   100.81   -13 LegendNANA
21:00 -7.7 -14.5 58 0.0 28 17   100.84   -14 LegendNANA
22:00 -8.1 -14.8 59 0.0 27 11   100.90   -13 LegendNANA
23:00 -8.5 -14.6 61 0.0 28 9   100.95   -13 LegendNANA

Notes on Data Quality.

Legend

  • E = Estimated
  • M = Missing
  • NA = Not Available*
  • [empty] = Indicates an unobserved value
Date modified: